CPA770 VTSP-VHHH

Flight info

Callsign CPA770
Flight time 3h 1m
Altitude 35000
Route N0464F350 EMRIT1A EMRIT Y99 NONEL Y98 SURMA W42 TOPER A1 SANOT Y15 GUROK A202 VILAO/K0850F350 A202 ASSAD/K0850S1070 A202 SAMAS/K0707S0630 A202 SIKOU/N0456F350 V571 CANTO
Aircraft A21N/M-SDE2E3FGHIJ1RWXY/LB1

Departure

Time 2026-05-07 01:03
Airport Phuket International Airport (VTSP)

Arrival

Time 2026-05-07 04:04
Airport Hong Kong International Airport (VHHH)
Time Latitude Longitude Altitude Speed Heading
2026-05-07 00:45 8.10584 98.30461 32 ft 0 kts 105°
2026-05-07 00:54 8.10588 98.30441 32 ft 4 kts 96°
2026-05-07 00:54 8.10588 98.30414 32 ft 5 kts 78°
2026-05-07 00:54 8.10580 98.30391 32 ft 4 kts 61°
2026-05-07 00:54 8.10579 98.30390 32 ft 0 kts 61°
2026-05-07 00:59 8.10642 98.30398 32 ft 11 kts 19°
2026-05-07 00:59 8.10730 98.30386 32 ft 16 kts 335°
2026-05-07 00:59 8.10840 98.30363 32 ft 18 kts 12°
2026-05-07 01:00 8.10961 98.30394 32 ft 19 kts 17°
2026-05-07 01:00 8.11050 98.30379 32 ft 3 kts 283°
2026-05-07 01:00 8.11057 98.30355 32 ft 4 kts 304°
2026-05-07 01:00 8.11087 98.30346 32 ft 3 kts 354°
2026-05-07 01:01 8.11111 98.30343 32 ft 4 kts 354°
2026-05-07 01:01 8.11144 98.30340 32 ft 6 kts 354°
2026-05-07 01:01 8.11187 98.30338 32 ft 7 kts 23°
2026-05-07 01:01 8.11191 98.30353 32 ft 2 kts 96°
2026-05-07 01:02 8.11209 98.30461 32 ft 42 kts 84°
2026-05-07 01:02 8.11258 98.31015 35 ft 113 kts 84°
2026-05-07 01:02 8.11353 98.32009 66 ft 166 kts 84°
2026-05-07 01:02 8.11474 98.33173 594 ft 167 kts 83°
2026-05-07 01:03 8.11608 98.34333 1290 ft 168 kts 86°
2026-05-07 01:03 8.11661 98.35562 1814 ft 181 kts 90°
2026-05-07 01:03 8.11728 98.36896 2306 ft 199 kts 85°
2026-05-07 01:03 8.11934 98.38317 2890 ft 211 kts 83°
2026-05-07 01:04 8.12101 98.39877 3233 ft 237 kts 86°
2026-05-07 01:04 8.12249 98.41604 3703 ft 253 kts 86°
2026-05-07 01:04 8.12408 98.43400 4396 ft 260 kts 86°
2026-05-07 01:04 8.12575 98.45231 5140 ft 264 kts 86°
2026-05-07 01:05 8.12746 98.47087 5877 ft 267 kts 86°
2026-05-07 01:05 8.12920 98.48965 6602 ft 270 kts 86°
2026-05-07 01:05 8.13095 98.50838 7287 ft 273 kts 86°
2026-05-07 01:05 8.13275 98.52759 7997 ft 277 kts 86°
2026-05-07 01:06 8.13458 98.54706 8724 ft 280 kts 85°
2026-05-07 01:06 8.13643 98.56670 9454 ft 283 kts 85°
2026-05-07 01:06 8.13829 98.58663 10113 ft 288 kts 85°
2026-05-07 01:06 8.13998 98.60728 10500 ft 302 kts 89°
2026-05-07 01:07 8.13820 98.62885 10837 ft 317 kts 99°
2026-05-07 01:07 8.13425 98.65114 11098 ft 335 kts 101°
2026-05-07 01:07 8.12992 98.67470 11487 ft 346 kts 100°
2026-05-07 01:07 8.12554 98.69883 12077 ft 350 kts 100°
2026-05-07 01:08 8.12121 98.72313 12696 ft 354 kts 100°
2026-05-07 01:08 8.11684 98.74770 13286 ft 358 kts 100°
2026-05-07 01:08 8.11245 98.77256 13850 ft 361 kts 99°
2026-05-07 01:08 8.10802 98.79765 14369 ft 365 kts 99°
2026-05-07 01:09 8.10553 98.82318 14879 ft 367 kts 91°
2026-05-07 01:09 8.10559 98.84906 15391 ft 370 kts 89°
2026-05-07 01:09 8.10601 98.87486 15884 ft 373 kts 89°
2026-05-07 01:09 8.10643 98.90119 16373 ft 376 kts 89°
2026-05-07 01:10 8.10683 98.92769 16849 ft 379 kts 89°
2026-05-07 01:10 8.10922 98.95429 17305 ft 383 kts 79°
2026-05-07 01:10 8.11726 98.97997 17751 ft 386 kts 66°
2026-05-07 01:10 8.13132 99.00326 18177 ft 390 kts 52°
2026-05-07 01:11 8.14966 99.02370 18581 ft 394 kts 47°
2026-05-07 01:11 8.16888 99.04360 18967 ft 397 kts 47°
2026-05-07 01:11 8.18794 99.06340 19347 ft 399 kts 47°
2026-05-07 01:11 8.20723 99.08366 19726 ft 402 kts 47°
2026-05-07 01:12 8.22657 99.10416 20105 ft 404 kts 47°
2026-05-07 01:12 8.24607 99.12486 20470 ft 407 kts 47°
2026-05-07 01:12 8.26568 99.14568 20850 ft 410 kts 47°
2026-05-07 01:12 8.28536 99.16661 21231 ft 412 kts 47°
2026-05-07 01:13 8.30522 99.18773 21615 ft 415 kts 47°
2026-05-07 01:13 8.32520 99.20897 21997 ft 418 kts 47°
2026-05-07 01:13 8.34532 99.23039 22375 ft 421 kts 47°
2026-05-07 01:13 8.36554 99.25191 22745 ft 424 kts 47°
2026-05-07 01:14 8.38566 99.27334 23100 ft 426 kts 47°
2026-05-07 01:14 8.40616 99.29510 23437 ft 429 kts 46°
2026-05-07 01:14 8.42832 99.31537 23711 ft 432 kts 37°
2026-05-07 01:14 8.45403 99.33112 23985 ft 435 kts 26°
2026-05-07 01:15 8.48267 99.34125 24255 ft 438 kts 14°
2026-05-07 01:15 8.51293 99.34539 24532 ft 441 kts
2026-05-07 01:15 8.54367 99.34678 24814 ft 443 kts
2026-05-07 01:15 8.57448 99.34795 25082 ft 445 kts
2026-05-07 01:16 8.60547 99.34927 25360 ft 446 kts
2026-05-07 01:16 8.63655 99.35072 25637 ft 448 kts
2026-05-07 01:16 8.66770 99.35228 25906 ft 449 kts
2026-05-07 01:16 8.69900 99.35385 26170 ft 451 kts
2026-05-07 01:17 8.73040 99.35540 26426 ft 453 kts
2026-05-07 01:17 8.76194 99.35694 26678 ft 455 kts
2026-05-07 01:17 8.79362 99.35852 26928 ft 456 kts
2026-05-07 01:17 8.82539 99.36013 27167 ft 458 kts
2026-05-07 01:18 8.85732 99.36176 27412 ft 459 kts
2026-05-07 01:18 8.88933 99.36338 27648 ft 461 kts
2026-05-07 01:18 8.92143 99.36495 27873 ft 463 kts
2026-05-07 01:18 8.95364 99.36655 28106 ft 464 kts
2026-05-07 01:19 8.98563 99.36815 28330 ft 466 kts
2026-05-07 01:19 9.01812 99.36978 28559 ft 467 kts
2026-05-07 01:19 9.05067 99.37138 28779 ft 469 kts
2026-05-07 01:19 9.08334 99.37302 29005 ft 470 kts
2026-05-07 01:20 9.11596 99.37466 29284 ft 469 kts
2026-05-07 01:20 9.14860 99.37630 29565 ft 469 kts
2026-05-07 01:20 9.18120 99.37793 29848 ft 468 kts
2026-05-07 01:20 9.21375 99.37958 30096 ft 468 kts
2026-05-07 01:21 9.24599 99.38325 30321 ft 466 kts 12°
2026-05-07 01:21 9.27731 99.39172 30552 ft 465 kts 18°
2026-05-07 01:21 9.30774 99.40133 30779 ft 464 kts 18°
2026-05-07 01:21 9.33857 99.41119 31012 ft 464 kts 18°
2026-05-07 01:22 9.36940 99.42090 31244 ft 464 kts 18°
2026-05-07 01:22 9.40025 99.43052 31462 ft 464 kts 18°
2026-05-07 01:22 9.43108 99.44007 31704 ft 463 kts 18°
2026-05-07 01:22 9.46187 99.44961 31940 ft 463 kts 18°
2026-05-07 01:23 9.49267 99.45915 32162 ft 462 kts 18°
2026-05-07 01:23 9.52344 99.46872 32358 ft 463 kts 18°
2026-05-07 01:23 9.55430 99.47835 32514 ft 464 kts 18°
2026-05-07 01:23 9.58515 99.48794 32699 ft 464 kts 18°
2026-05-07 01:24 9.61605 99.49756 32907 ft 464 kts 18°
2026-05-07 01:24 9.64653 99.50706 33114 ft 464 kts 18°
2026-05-07 01:24 9.67748 99.51671 33304 ft 464 kts 18°
2026-05-07 01:24 9.70829 99.52629 33519 ft 463 kts 18°
2026-05-07 01:25 9.73910 99.53588 33703 ft 463 kts 18°
2026-05-07 01:25 9.76990 99.54543 33895 ft 463 kts 18°
2026-05-07 01:25 9.80070 99.55498 34073 ft 462 kts 18°
2026-05-07 01:25 9.83139 99.56454 34236 ft 461 kts 18°
2026-05-07 01:26 9.86209 99.57415 34418 ft 460 kts 18°
2026-05-07 01:26 9.89274 99.58373 34579 ft 460 kts 18°
2026-05-07 01:26 9.92293 99.59316 34734 ft 459 kts 18°
2026-05-07 01:26 9.95352 99.60269 34867 ft 459 kts 18°
2026-05-07 01:27 9.98406 99.61219 34888 ft 458 kts 18°
2026-05-07 01:27 10.04498 99.63123 34864 ft 458 kts 18°
2026-05-07 01:28 10.10585 99.65023 34855 ft 457 kts 18°
2026-05-07 01:28 10.16666 99.66923 34852 ft 457 kts 18°
2026-05-07 01:29 10.22747 99.68827 34859 ft 458 kts 18°
2026-05-07 01:29 10.28840 99.70730 34858 ft 458 kts 18°
2026-05-07 01:30 10.34929 99.72635 34858 ft 458 kts 18°
2026-05-07 01:30 10.40977 99.74525 34860 ft 457 kts 18°
2026-05-07 01:31 10.47075 99.76437 34859 ft 457 kts 17°
2026-05-07 01:31 10.53158 99.78341 34858 ft 456 kts 18°
2026-05-07 01:32 10.59256 99.80248 34861 ft 456 kts 18°
2026-05-07 01:32 10.65337 99.82153 34861 ft 456 kts 18°
2026-05-07 01:33 10.71390 99.84052 34867 ft 458 kts 18°
2026-05-07 01:33 10.77505 99.85973 34870 ft 459 kts 18°
2026-05-07 01:34 10.83623 99.87890 34871 ft 461 kts 17°
2026-05-07 01:34 10.89636 99.90076 34869 ft 460 kts 27°
2026-05-07 01:35 10.95251 99.93222 34873 ft 459 kts 29°
2026-05-07 01:35 11.00802 99.96369 34875 ft 458 kts 29°
2026-05-07 01:36 11.06395 99.99518 34883 ft 458 kts 29°
2026-05-07 01:36 11.11991 100.02668 34883 ft 459 kts 29°
2026-05-07 01:37 11.17592 100.05820 34880 ft 461 kts 29°
2026-05-07 01:37 11.23202 100.08983 34882 ft 461 kts 29°
2026-05-07 01:38 11.28774 100.12124 34883 ft 460 kts 29°
2026-05-07 01:38 11.34377 100.15282 34881 ft 459 kts 29°
2026-05-07 01:39 11.39980 100.18443 34884 ft 459 kts 29°
2026-05-07 01:39 11.45582 100.21605 34885 ft 459 kts 29°
2026-05-07 01:40 11.51192 100.24768 34888 ft 460 kts 29°
2026-05-07 01:40 11.55841 100.27397 34888 ft 461 kts 29°
2026-05-07 01:41 11.62358 100.31078 34888 ft 461 kts 29°
2026-05-07 01:41 11.67022 100.33715 34887 ft 459 kts 29°
2026-05-07 01:42 11.72628 100.36892 34885 ft 459 kts 29°
2026-05-07 01:42 11.78227 100.40059 34888 ft 460 kts 29°
2026-05-07 01:43 11.83827 100.43240 34890 ft 461 kts 30°
2026-05-07 01:43 11.88824 100.47240 34893 ft 462 kts 43°
2026-05-07 01:44 11.93499 100.51764 34890 ft 462 kts 44°
2026-05-07 01:44 11.98173 100.56274 34890 ft 462 kts 43°
2026-05-07 01:45 12.02384 100.61208 34891 ft 461 kts 54°
2026-05-07 01:45 12.06748 100.66017 34890 ft 460 kts 44°
2026-05-07 01:46 12.11409 100.70530 34890 ft 460 kts 44°
2026-05-07 01:46 12.15988 100.75064 34888 ft 460 kts 45°
2026-05-07 01:47 12.20584 100.79648 34891 ft 461 kts 44°
2026-05-07 01:47 12.25187 100.84233 34892 ft 462 kts 44°
2026-05-07 01:48 12.29791 100.88823 34893 ft 462 kts 44°
2026-05-07 01:48 12.34396 100.93413 34891 ft 462 kts 44°
2026-05-07 01:49 12.38999 100.98006 34889 ft 462 kts 44°
2026-05-07 01:49 12.43571 101.02568 34890 ft 462 kts 44°
2026-05-07 01:50 12.48176 101.07167 34894 ft 462 kts 44°
2026-05-07 01:50 12.52776 101.11769 34894 ft 462 kts 44°
2026-05-07 01:51 12.57387 101.16379 34896 ft 464 kts 44°
2026-05-07 01:51 12.62006 101.21003 34896 ft 464 kts 44°
2026-05-07 01:52 12.66624 101.25628 34897 ft 464 kts 44°
2026-05-07 01:52 12.71247 101.30257 34900 ft 463 kts 44°
2026-05-07 01:53 12.75825 101.34845 34898 ft 463 kts 44°
2026-05-07 01:53 12.80436 101.39467 34897 ft 463 kts 44°
2026-05-07 01:54 12.85045 101.44087 34898 ft 463 kts 44°
2026-05-07 01:54 12.89645 101.48720 34900 ft 463 kts 44°
2026-05-07 01:55 12.94233 101.53333 34899 ft 464 kts 44°
2026-05-07 01:55 12.98852 101.57956 34902 ft 464 kts 44°
2026-05-07 01:56 13.03467 101.62591 34905 ft 464 kts 44°
2026-05-07 01:56 13.08072 101.67224 34904 ft 464 kts 44°
2026-05-07 01:57 13.12638 101.71820 34900 ft 462 kts 44°
2026-05-07 01:57 13.17237 101.76453 34903 ft 462 kts 44°
2026-05-07 01:58 13.21830 101.81088 34906 ft 462 kts 44°
2026-05-07 01:58 13.26425 101.85718 34905 ft 462 kts 44°
2026-05-07 01:59 13.31018 101.90349 34908 ft 463 kts 44°
2026-05-07 01:59 13.35610 101.94982 34905 ft 463 kts 44°
2026-05-07 02:00 13.40175 101.99597 34905 ft 462 kts 44°
2026-05-07 02:00 13.44759 102.04231 34908 ft 462 kts 44°
2026-05-07 02:01 13.49340 102.08860 34903 ft 462 kts 44°
2026-05-07 02:01 13.53918 102.13493 34901 ft 462 kts 44°
2026-05-07 02:02 13.58501 102.18132 34900 ft 461 kts 44°
2026-05-07 02:02 13.63076 102.22765 34900 ft 461 kts 44°
2026-05-07 02:03 13.67607 102.27368 34899 ft 461 kts 44°
2026-05-07 02:03 13.72178 102.32012 34900 ft 461 kts 44°
2026-05-07 02:04 13.76753 102.36649 34901 ft 461 kts 44°
2026-05-07 02:04 13.81324 102.41288 34898 ft 461 kts 44°
2026-05-07 02:05 13.85856 102.45888 34899 ft 461 kts 44°
2026-05-07 02:05 13.90417 102.50522 34902 ft 461 kts 44°
2026-05-07 02:06 13.95002 102.55180 34906 ft 462 kts 44°
2026-05-07 02:06 13.99566 102.59828 34906 ft 462 kts 44°
2026-05-07 02:07 14.04131 102.64484 34899 ft 462 kts 44°
2026-05-07 02:07 14.10978 102.71471 34899 ft 462 kts 44°
2026-05-07 02:08 14.15517 102.76097 34899 ft 462 kts 44°
2026-05-07 02:08 14.20081 102.80752 34899 ft 459 kts 44°
2026-05-07 02:09 14.24634 102.85396 34902 ft 462 kts 44°
2026-05-07 02:09 14.29201 102.90065 34905 ft 462 kts 44°
2026-05-07 02:10 14.33773 102.94728 34902 ft 462 kts 44°
2026-05-07 02:10 14.38340 102.99393 34903 ft 462 kts 44°
2026-05-07 02:11 14.42902 103.04067 34905 ft 462 kts 44°
2026-05-07 02:11 14.47470 103.08744 34906 ft 462 kts 44°
2026-05-07 02:12 14.52005 103.13392 34906 ft 461 kts 44°
2026-05-07 02:12 14.56536 103.18036 34908 ft 458 kts 44°
2026-05-07 02:13 14.61068 103.22690 34907 ft 460 kts 44°
2026-05-07 02:13 14.65608 103.27351 34908 ft 460 kts 44°
2026-05-07 02:14 14.70145 103.32014 34905 ft 460 kts 44°
2026-05-07 02:14 14.74678 103.36680 34905 ft 460 kts 44°
2026-05-07 02:15 14.79184 103.41318 34909 ft 460 kts 44°
2026-05-07 02:15 14.83716 103.45984 34911 ft 460 kts 44°
2026-05-07 02:16 14.88252 103.50654 34911 ft 460 kts 44°
2026-05-07 02:16 14.92772 103.55312 34908 ft 458 kts 44°
2026-05-07 02:17 14.97286 103.59973 34905 ft 458 kts 44°
2026-05-07 02:17 15.01800 103.64630 34909 ft 458 kts 44°
2026-05-07 02:18 15.06313 103.69290 34909 ft 458 kts 44°
2026-05-07 02:18 15.10799 103.73919 34908 ft 458 kts 44°
2026-05-07 02:19 15.15473 103.78386 34905 ft 457 kts 34°
2026-05-07 02:19 15.21143 103.81325 34915 ft 455 kts 21°
2026-05-07 02:20 15.27016 103.83816 34908 ft 456 kts 21°
2026-05-07 02:20 15.32871 103.86371 34909 ft 456 kts 22°
2026-05-07 02:21 15.38678 103.88920 34902 ft 455 kts 22°
2026-05-07 02:21 15.44520 103.91475 34903 ft 455 kts 22°
2026-05-07 02:22 15.50358 103.94041 34906 ft 455 kts 22°
2026-05-07 02:22 15.56197 103.96608 34910 ft 455 kts 22°
2026-05-07 02:23 15.62025 103.99172 34903 ft 455 kts 22°
2026-05-07 02:23 15.67822 104.01727 34903 ft 455 kts 22°
2026-05-07 02:24 15.73657 104.04297 34902 ft 455 kts 22°
2026-05-07 02:24 15.79489 104.06866 34899 ft 455 kts 22°
2026-05-07 02:25 15.85315 104.09439 34900 ft 455 kts 22°
2026-05-07 02:25 15.91147 104.12010 34899 ft 455 kts 22°
2026-05-07 02:26 15.96975 104.14585 34902 ft 455 kts 22°
2026-05-07 02:26 16.02796 104.17167 34903 ft 455 kts 22°
2026-05-07 02:27 16.05550 104.18707 34898 ft 456 kts 33°
2026-05-07 02:27 16.07972 104.20852 34902 ft 459 kts 45°
2026-05-07 02:27 16.12248 104.25774 34903 ft 457 kts 47°
2026-05-07 02:28 16.16496 104.30696 34904 ft 457 kts 46°
2026-05-07 02:28 16.20782 104.35597 34912 ft 457 kts 46°
2026-05-07 02:29 16.24353 104.39677 34903 ft 458 kts 46°
2026-05-07 02:29 16.28639 104.44592 34906 ft 459 kts 47°
2026-05-07 02:30 16.32893 104.49540 34911 ft 459 kts 47°
2026-05-07 02:30 16.37156 104.54496 34915 ft 459 kts 47°
2026-05-07 02:31 16.41412 104.59450 34922 ft 459 kts 47°
2026-05-07 02:31 16.45634 104.64377 34928 ft 459 kts 47°
2026-05-07 02:32 16.49888 104.69333 34934 ft 459 kts 47°
2026-05-07 02:32 16.54156 104.74294 34937 ft 459 kts 47°
2026-05-07 02:33 16.58067 104.79551 34938 ft 460 kts 56°
2026-05-07 02:33 16.61480 104.85188 34934 ft 460 kts 57°
2026-05-07 02:34 16.64895 104.90833 34923 ft 460 kts 56°
2026-05-07 02:34 16.68343 104.96447 34913 ft 459 kts 56°
2026-05-07 02:35 16.71773 105.02020 34897 ft 460 kts 56°
2026-05-07 02:35 16.75236 105.07624 34893 ft 459 kts 56°
2026-05-07 02:36 16.78691 105.13244 34893 ft 459 kts 56°
2026-05-07 02:36 16.82137 105.18865 34894 ft 459 kts 56°
2026-05-07 02:37 16.85581 105.24482 34894 ft 459 kts 56°
2026-05-07 02:37 16.89028 105.30100 34896 ft 459 kts 56°
2026-05-07 02:38 16.92474 105.35707 34896 ft 459 kts 56°
2026-05-07 02:38 16.95896 105.41294 34895 ft 459 kts 56°
2026-05-07 02:39 16.99322 105.46925 34896 ft 459 kts 57°
2026-05-07 02:39 17.02754 105.52550 34903 ft 459 kts 57°
2026-05-07 02:40 17.06177 105.58178 34901 ft 458 kts 56°
2026-05-07 02:40 17.09614 105.63787 34903 ft 458 kts 56°
2026-05-07 02:41 17.13025 105.69425 34914 ft 459 kts 57°
2026-05-07 02:41 17.16434 105.75052 34908 ft 457 kts 56°
2026-05-07 02:42 17.19813 105.80636 34912 ft 457 kts 56°
2026-05-07 02:42 17.23227 105.86258 34914 ft 457 kts 56°
2026-05-07 02:43 17.26640 105.91877 34917 ft 457 kts 57°
2026-05-07 02:43 17.30052 105.97496 34927 ft 457 kts 56°
2026-05-07 02:44 17.33464 106.03131 34924 ft 459 kts 57°
2026-05-07 02:44 17.36888 106.08771 34923 ft 459 kts 57°
2026-05-07 02:45 17.40313 106.14367 34925 ft 459 kts 56°
2026-05-07 02:45 17.43817 106.19966 34926 ft 459 kts 56°
2026-05-07 02:46 17.47295 106.25584 34920 ft 460 kts 56°
2026-05-07 02:46 17.50758 106.31224 34917 ft 460 kts 56°
2026-05-07 02:47 17.54223 106.36859 34910 ft 459 kts 56°
2026-05-07 02:47 17.57667 106.42455 34910 ft 459 kts 56°
2026-05-07 02:48 17.61123 106.48097 34904 ft 460 kts 56°
2026-05-07 02:48 17.64558 106.53764 34904 ft 460 kts 56°
2026-05-07 02:49 17.67998 106.59417 34905 ft 460 kts 56°
2026-05-07 02:49 17.71446 106.65060 34907 ft 460 kts 56°
2026-05-07 02:50 17.74874 106.70697 34905 ft 461 kts 56°
2026-05-07 02:50 17.78338 106.76369 34902 ft 462 kts 56°
2026-05-07 02:51 17.81813 106.82040 34901 ft 462 kts 56°
2026-05-07 02:51 17.85278 106.87718 34902 ft 462 kts 56°
2026-05-07 02:52 17.88743 106.93402 34901 ft 462 kts 56°
2026-05-07 02:52 17.92221 106.99087 34903 ft 462 kts 56°
2026-05-07 02:53 17.95690 107.04758 34903 ft 462 kts 56°
2026-05-07 02:53 17.99139 107.10410 34907 ft 462 kts 56°
2026-05-07 02:54 18.02608 107.16102 34908 ft 463 kts 56°
2026-05-07 02:54 18.06074 107.21797 34905 ft 463 kts 56°
2026-05-07 02:55 18.09549 107.27507 34905 ft 463 kts 56°
2026-05-07 02:55 18.13006 107.33205 34907 ft 462 kts 56°
2026-05-07 02:56 18.16445 107.38877 34907 ft 462 kts 56°
2026-05-07 02:56 18.19903 107.44578 34911 ft 462 kts 56°
2026-05-07 02:57 18.23360 107.50288 34911 ft 462 kts 56°
2026-05-07 02:57 18.26811 107.56000 34911 ft 462 kts 56°
2026-05-07 02:58 18.30254 107.61706 34917 ft 462 kts 56°
2026-05-07 02:58 18.33714 107.67416 34914 ft 462 kts 54°
2026-05-07 02:59 18.37706 107.72696 34915 ft 461 kts 48°
2026-05-07 02:59 18.41810 107.77872 34915 ft 459 kts 48°
2026-05-07 03:00 18.45893 107.83049 34916 ft 459 kts 49°
2026-05-07 03:00 18.49940 107.88200 34916 ft 459 kts 49°
2026-05-07 03:01 18.54017 107.93387 34920 ft 459 kts 49°
2026-05-07 03:01 18.58091 107.98579 34921 ft 459 kts 48°
2026-05-07 03:02 18.62168 108.03783 34919 ft 460 kts 48°
2026-05-07 03:02 18.66240 108.09001 34921 ft 460 kts 49°
2026-05-07 03:03 18.70291 108.14230 34920 ft 460 kts 49°
2026-05-07 03:03 18.74363 108.19441 34918 ft 460 kts 49°
2026-05-07 03:04 18.78420 108.24617 34917 ft 460 kts 48°
2026-05-07 03:04 18.82499 108.29831 34918 ft 460 kts 48°
2026-05-07 03:05 18.86576 108.35040 34920 ft 460 kts 48°
2026-05-07 03:05 18.90675 108.40259 34910 ft 461 kts 48°
2026-05-07 03:06 18.94756 108.45494 34918 ft 461 kts 48°
2026-05-07 03:06 18.98835 108.50708 34919 ft 460 kts 49°
2026-05-07 03:07 19.02911 108.55937 34922 ft 460 kts 49°
2026-05-07 03:07 19.06953 108.61136 34915 ft 460 kts 49°
2026-05-07 03:08 19.11020 108.66382 34920 ft 460 kts 49°
2026-05-07 03:08 19.15082 108.71621 34917 ft 460 kts 49°
2026-05-07 03:09 19.19148 108.76852 34926 ft 460 kts 48°
2026-05-07 03:09 19.23206 108.82087 34921 ft 460 kts 49°
2026-05-07 03:10 19.27257 108.87328 34913 ft 460 kts 49°
2026-05-07 03:10 19.31311 108.92569 34924 ft 460 kts 49°
2026-05-07 03:11 19.35367 108.97807 34919 ft 460 kts 49°
2026-05-07 03:11 19.39391 109.03018 34916 ft 460 kts 49°
2026-05-07 03:12 19.43438 109.08262 34932 ft 460 kts 49°
2026-05-07 03:12 19.47481 109.13533 34927 ft 459 kts 49°
2026-05-07 03:13 19.51492 109.18800 34928 ft 459 kts 49°
2026-05-07 03:13 19.55522 109.24070 34927 ft 459 kts 49°
2026-05-07 03:14 19.59557 109.29329 34922 ft 459 kts 49°
2026-05-07 03:15 19.65559 109.37197 34929 ft 459 kts 49°
2026-05-07 03:15 19.69565 109.42485 34918 ft 459 kts 49°
2026-05-07 03:16 19.73574 109.47767 34922 ft 459 kts 49°
2026-05-07 03:16 19.76906 109.52162 34918 ft 459 kts 49°
2026-05-07 03:17 19.80902 109.57457 34919 ft 459 kts 49°
2026-05-07 03:17 19.84903 109.62745 34911 ft 459 kts 49°
2026-05-07 03:18 19.88905 109.68034 34914 ft 459 kts 49°
2026-05-07 03:18 19.92911 109.73331 34922 ft 459 kts 49°
2026-05-07 03:19 19.96882 109.78591 34919 ft 459 kts 49°
2026-05-07 03:19 20.00877 109.83892 34927 ft 459 kts 49°
2026-05-07 03:20 20.04862 109.89192 34922 ft 458 kts 49°
2026-05-07 03:20 20.08846 109.94488 34924 ft 458 kts 49°
2026-05-07 03:21 20.12803 109.99748 34923 ft 458 kts 49°
2026-05-07 03:21 20.16789 110.05050 34925 ft 458 kts 49°
2026-05-07 03:22 20.20771 110.10363 34932 ft 458 kts 49°
2026-05-07 03:22 20.24731 110.15639 34929 ft 458 kts 49°
2026-05-07 03:23 20.28700 110.20936 34936 ft 458 kts 49°
2026-05-07 03:23 20.32698 110.26240 34935 ft 458 kts 48°
2026-05-07 03:24 20.36713 110.31462 34943 ft 458 kts 48°
2026-05-07 03:24 20.40745 110.36726 34939 ft 458 kts 48°
2026-05-07 03:25 20.44766 110.41997 34938 ft 458 kts 48°
2026-05-07 03:25 20.48784 110.47267 34944 ft 458 kts 49°
2026-05-07 03:26 20.51832 110.53259 34943 ft 463 kts 67°
2026-05-07 03:26 20.53983 110.59740 34947 ft 464 kts 68°
2026-05-07 03:27 20.56153 110.66256 34943 ft 465 kts 68°
2026-05-07 03:27 20.58327 110.72727 34941 ft 466 kts 68°
2026-05-07 03:28 20.60511 110.79231 34942 ft 465 kts 68°
2026-05-07 03:28 20.62697 110.85734 34942 ft 465 kts 68°
2026-05-07 03:29 20.64868 110.92202 34941 ft 465 kts 68°
2026-05-07 03:29 20.67069 110.98700 34941 ft 465 kts 68°
2026-05-07 03:30 20.69269 111.05195 34944 ft 465 kts 68°
2026-05-07 03:30 20.71455 111.11693 34948 ft 465 kts 68°
2026-05-07 03:31 20.73643 111.18192 34950 ft 464 kts 68°
2026-05-07 03:31 20.75831 111.24674 34949 ft 464 kts 68°
2026-05-07 03:32 20.78002 111.31124 34948 ft 464 kts 68°
2026-05-07 03:32 20.80182 111.37612 34946 ft 464 kts 68°
2026-05-07 03:33 20.82356 111.44106 34951 ft 464 kts 68°
2026-05-07 03:33 20.84530 111.50602 34950 ft 464 kts 68°
2026-05-07 03:34 20.86722 111.57090 34949 ft 463 kts 68°
2026-05-07 03:34 20.88919 111.63579 34949 ft 464 kts 68°
2026-05-07 03:35 20.91093 111.70024 34956 ft 464 kts 68°
2026-05-07 03:35 20.93277 111.76515 34952 ft 463 kts 68°
2026-05-07 03:36 20.95457 111.83004 34952 ft 463 kts 68°
2026-05-07 03:36 20.97626 111.89497 34953 ft 463 kts 68°
2026-05-07 03:37 20.99808 111.95989 34955 ft 465 kts 68°
2026-05-07 03:37 21.01992 112.02500 34954 ft 465 kts 68°
2026-05-07 03:38 21.04179 112.09016 34957 ft 465 kts 68°
2026-05-07 03:38 21.06359 112.15534 34958 ft 465 kts 68°
2026-05-07 03:39 21.08516 112.22021 34893 ft 461 kts 68°
2026-05-07 03:39 21.09601 112.25269 34559 ft 467 kts 68°
2026-05-07 03:39 21.10701 112.28564 34306 ft 471 kts 68°
2026-05-07 03:39 21.11790 112.31879 34073 ft 473 kts 68°
2026-05-07 03:40 21.12871 112.35209 33834 ft 474 kts 68°
2026-05-07 03:40 21.13968 112.38548 33578 ft 475 kts 68°
2026-05-07 03:40 21.15081 112.41892 33322 ft 475 kts 68°
2026-05-07 03:40 21.16190 112.45240 33070 ft 476 kts 68°
2026-05-07 03:41 21.17283 112.48546 32824 ft 477 kts 68°
2026-05-07 03:41 21.18395 112.51909 32570 ft 478 kts 68°
2026-05-07 03:41 21.19506 112.55266 32331 ft 479 kts 68°
2026-05-07 03:41 21.20616 112.58632 32100 ft 480 kts 68°
2026-05-07 03:42 21.21739 112.62007 31857 ft 481 kts 68°
2026-05-07 03:42 21.22858 112.65392 31613 ft 481 kts 69°
2026-05-07 03:42 21.23969 112.68769 31383 ft 480 kts 68°
2026-05-07 03:42 21.25089 112.72132 31145 ft 478 kts 69°
2026-05-07 03:43 21.26187 112.75445 30915 ft 476 kts 69°
2026-05-07 03:43 21.27292 112.78789 30683 ft 475 kts 69°
2026-05-07 03:43 21.28381 112.82129 30453 ft 473 kts 69°
2026-05-07 03:43 21.29463 112.85449 30125 ft 470 kts 69°
2026-05-07 03:44 21.30542 112.88749 29523 ft 467 kts 69°
2026-05-07 03:44 21.31619 112.92034 28863 ft 466 kts 69°
2026-05-07 03:44 21.32691 112.95315 28224 ft 465 kts 69°
2026-05-07 03:44 21.33755 112.98583 27624 ft 463 kts 69°
2026-05-07 03:45 21.34821 113.01845 27011 ft 461 kts 69°
2026-05-07 03:45 21.35886 113.05086 26391 ft 460 kts 69°
2026-05-07 03:45 21.36935 113.08284 25784 ft 459 kts 69°
2026-05-07 03:45 21.37997 113.11524 25196 ft 457 kts 69°
2026-05-07 03:46 21.39044 113.14733 24581 ft 454 kts 69°
2026-05-07 03:46 21.40090 113.17924 23965 ft 451 kts 69°
2026-05-07 03:46 21.41141 113.21082 23332 ft 448 kts 69°
2026-05-07 03:46 21.42186 113.24218 22664 ft 445 kts 69°
2026-05-07 03:47 21.43216 113.27336 22018 ft 441 kts 69°
2026-05-07 03:47 21.44226 113.30425 21388 ft 437 kts 69°
2026-05-07 03:47 21.45222 113.33492 20779 ft 433 kts 70°
2026-05-07 03:47 21.46209 113.36528 20203 ft 428 kts 70°
2026-05-07 03:48 21.47184 113.39527 19658 ft 422 kts 70°
2026-05-07 03:48 21.48130 113.42442 19142 ft 416 kts 70°
2026-05-07 03:48 21.49073 113.45352 18646 ft 409 kts 70°
2026-05-07 03:48 21.50002 113.48212 18152 ft 402 kts 70°
2026-05-07 03:49 21.50914 113.51026 17628 ft 396 kts 70°
2026-05-07 03:49 21.51805 113.53812 17130 ft 391 kts 70°
2026-05-07 03:49 21.52697 113.56558 16643 ft 387 kts 68°
2026-05-07 03:49 21.54012 113.59044 16164 ft 380 kts 49°
2026-05-07 03:50 21.55825 113.61095 15717 ft 378 kts 43°
2026-05-07 03:50 21.57723 113.63054 15261 ft 379 kts 42°
2026-05-07 03:50 21.59615 113.65023 14845 ft 379 kts 43°
2026-05-07 03:50 21.61478 113.66981 14398 ft 380 kts 43°
2026-05-07 03:51 21.63370 113.68976 13940 ft 381 kts 43°
2026-05-07 03:51 21.65269 113.70962 13451 ft 379 kts 41°
2026-05-07 03:51 21.67202 113.72856 12987 ft 373 kts 41°
2026-05-07 03:51 21.69122 113.74723 12544 ft 368 kts 41°
2026-05-07 03:52 21.71007 113.76547 12109 ft 362 kts 40°
2026-05-07 03:52 21.72873 113.78347 11664 ft 358 kts 41°
2026-05-07 03:52 21.74711 113.80136 11235 ft 355 kts 41°
2026-05-07 03:52 21.76541 113.81921 10851 ft 352 kts 41°
2026-05-07 03:53 21.78324 113.83672 10631 ft 341 kts 41°
2026-05-07 03:53 21.80030 113.85346 10466 ft 330 kts 41°
2026-05-07 03:53 21.81705 113.86978 10311 ft 318 kts 41°
2026-05-07 03:53 21.83380 113.88471 10083 ft 310 kts 31°
2026-05-07 03:54 21.85354 113.89310 9644 ft 305 kts
2026-05-07 03:54 21.87438 113.89202 9162 ft 300 kts 342°
2026-05-07 03:54 21.89357 113.88366 8741 ft 296 kts 332°
2026-05-07 03:54 21.91206 113.87386 8323 ft 296 kts 331°
2026-05-07 03:55 21.93052 113.86416 7971 ft 293 kts 332°
2026-05-07 03:55 21.94887 113.85474 7615 ft 291 kts 332°
2026-05-07 03:55 21.96719 113.84545 7219 ft 291 kts 333°
2026-05-07 03:55 21.98549 113.83627 6864 ft 289 kts 333°
2026-05-07 03:56 22.00348 113.82726 6487 ft 288 kts 333°
2026-05-07 03:56 22.02169 113.81821 6099 ft 287 kts 333°
2026-05-07 03:56 22.03975 113.80922 5737 ft 285 kts 333°
2026-05-07 03:56 22.05771 113.80030 5384 ft 283 kts 334°
2026-05-07 03:57 22.07557 113.79141 5000 ft 283 kts 333°
2026-05-07 03:57 22.09337 113.78255 4677 ft 280 kts 333°
2026-05-07 03:57 22.11102 113.77376 4345 ft 278 kts 334°
2026-05-07 03:57 22.12832 113.76516 4169 ft 270 kts 334°
2026-05-07 03:58 22.14504 113.75683 4028 ft 259 kts 334°
2026-05-07 03:58 22.16111 113.74881 3906 ft 249 kts 334°
2026-05-07 03:58 22.17647 113.74116 3792 ft 238 kts 334°
2026-05-07 03:58 22.19115 113.73385 3658 ft 229 kts 334°
2026-05-07 03:59 22.20556 113.72665 3467 ft 224 kts 333°
2026-05-07 03:59 22.21924 113.71983 3293 ft 217 kts 333°
2026-05-07 03:59 22.23336 113.71491 3225 ft 206 kts 353°
2026-05-07 03:59 22.24658 113.71856 3047 ft 199 kts 37°
2026-05-07 04:00 22.25607 113.72965 2858 ft 198 kts 50°
2026-05-07 04:00 22.26541 113.74025 2652 ft 197 kts 45°
2026-05-07 04:00 22.27533 113.75035 2396 ft 195 kts 45°
2026-05-07 04:00 22.28314 113.76191 2142 ft 188 kts 68°
2026-05-07 04:01 22.28735 113.77483 1971 ft 177 kts 76°
2026-05-07 04:01 22.29109 113.78717 1780 ft 169 kts 73°
2026-05-07 04:01 22.29485 113.79905 1590 ft 167 kts 73°
2026-05-07 04:01 22.29858 113.81070 1402 ft 158 kts 72°
2026-05-07 04:02 22.30200 113.82134 1178 ft 145 kts 73°
2026-05-07 04:02 22.30529 113.83161 1000 ft 145 kts 75°
2026-05-07 04:02 22.30847 113.84174 836 ft 142 kts 75°
2026-05-07 04:02 22.31159 113.85174 681 ft 138 kts 73°
2026-05-07 04:03 22.31478 113.86153 533 ft 137 kts 72°
2026-05-07 04:03 22.31798 113.87107 320 ft 133 kts 70°
2026-05-07 04:03 22.32096 113.88041 103 ft 130 kts 71°
2026-05-07 04:03 22.32381 113.88932 37 ft 116 kts 71°
2026-05-07 04:04 22.32618 113.89658 37 ft 87 kts 70°
2026-05-07 04:04 22.32785 113.90181 38 ft 62 kts 76°
2026-05-07 04:04 22.32792 113.90573 37 ft 50 kts 101°
2026-05-07 04:04 22.32846 113.90928 38 ft 48 kts 70°
2026-05-07 04:05 22.32958 113.91275 38 ft 49 kts 70°
2026-05-07 04:05 22.33070 113.91625 38 ft 50 kts 71°
2026-05-07 04:05 22.33159 113.91904 38 ft 31 kts 71°
2026-05-07 04:05 22.33207 113.92114 38 ft 8 kts 140°
2026-05-07 04:06 22.33147 113.92142 38 ft 11 kts 160°
2026-05-07 04:06 22.33061 113.92175 38 ft 15 kts 161°
2026-05-07 04:06 22.32951 113.92216 38 ft 18 kts 161°
2026-05-07 04:06 22.32817 113.92263 38 ft 22 kts 162°
2026-05-07 04:07 22.32717 113.92299 38 ft 24 kts 162°
2026-05-07 04:07 22.32549 113.92360 38 ft 27 kts 161°
2026-05-07 04:07 22.32370 113.92428 38 ft 28 kts 160°
2026-05-07 04:07 22.32253 113.92560 38 ft 29 kts 68°
2026-05-07 04:08 22.32327 113.92769 38 ft 30 kts 72°
2026-05-07 04:08 22.32358 113.92994 38 ft 31 kts 96°
2026-05-07 04:08 22.32344 113.93228 38 ft 32 kts 91°
2026-05-07 04:08 22.32315 113.93462 39 ft 33 kts 141°
2026-05-07 04:09 22.32205 113.93483 41 ft 12 kts 215°
2026-05-07 04:09 22.32136 113.93381 38 ft 23 kts 240°
2026-05-07 04:09 22.32047 113.93219 37 ft 26 kts 239°
2026-05-07 04:09 22.31908 113.93110 37 ft 27 kts 173°
2026-05-07 04:10 22.31731 113.93170 37 ft 27 kts 161°
2026-05-07 04:10 22.31607 113.93199 37 ft 0 kts 145°
2026-05-07 04:10 22.31604 113.93202 37 ft 3 kts 133°
2026-05-07 04:10 22.31578 113.93225 37 ft 6 kts 144°
2026-05-07 04:11 22.31543 113.93251 37 ft 0 kts 144°